Wind_Speed
38 42 47 46 42 41 41 41 41 44 46 44 40 36 34 35 32 29 26 22 18 16 14 13 13 13 13 13 15 19 23 29 30 32 34 35 38 34 30 29 27 26 29 31
33 37 41 43 41 39 41 41 43 45 47 45 40 36 37 36 31 28 26 22 19 15 17 14 13 14 13 14 17 21 23 25 27 27 26 23 19 15 15 18 16 20 21 8
30 32 34 37 39 40 41 41 44 47 48 46 42 38 39 35 29 29 26 22 19 17 16 14 12 14 11 15 16 18 20 20 17 15 13 10 11 13 14 15 16 9 15 14
28 30 32 37 40 40 41 42 46 48 49 46 42 41 41 32 28 26 27 22 19 19 14 15 14 12 11 14 13 14 13 10 8 7 8 13 14 12 13 14 15 12 9 15
25 27 29 34 38 39 41 43 45 46 46 45 42 43 40 32 28 27 25 22 19 17 16 16 13 11 10 10 9 9 7 7 7 9 12 15 13 13 13 13 12 10 9 8
23 25 27 32 36 38 40 42 43 45 46 45 44 42 39 34 30 26 23 22 19 20 18 15 13 10 8 6 6 7 7 8 9 9 13 13 11 12 11 12 12 11 10 10
22 24 26 30 34 38 40 42 41 44 45 45 45 42 38 34 31 27 25 22 23 21 17 15 13 10 7 5 5 5 6 7 8 8 11 11 11 12 12 12 12 13 13 14
21 23 26 31 33 38 39 42 38 44 43 45 44 41 38 34 31 28 25 25 24 18 17 15 12 10 7 5 4 4 6 6 9 8 9 9 11 13 15 17 18 18 19 19
21 24 27 33 40 40 36 41 42 45 42 44 43 43 41 37 30 28 25 27 23 19 19 16 13 10 8 6 4 5 8 8 10 9 11 14 15 16 17 19 19 22 23 24
21 24 28 34 36 36 35 34 43 49 42 45 44 45 41 36 32 29 29 27 22 23 20 18 14 11 9 8 6 7 10 12 12 12 14 18 19 23 24 26 25 25 28 31
22 24 27 34 32 37 33 38 43 49 42 46 45 45 39 36 32 31 30 27 23 22 20 18 14 11 9 10 10 10 12 13 14 14 18 22 23 26 27 27 27 29 32 34
23 25 27 32 32 33 32 44 47 47 44 44 45 43 40 36 31 30 28 24 25 23 20 18 14 12 10 9 11 12 13 15 15 18 21 25 28 28 28 27 28 30 30 29
22 25 27 30 35 32 32 45 50 50 43 29 38 41 40 34 32 31 28 26 24 21 20 18 15 14 11 10 12 12 15 16 16 20 23 27 27 29 29 29 28 28 27 27
23 23 27 30 35 34 32 39 52 49 44 36 28 41 37 35 34 34 31 27 26 23 22 18 14 11 10 9 8 11 13 14 17 20 23 27 27 30 29 27 25 24 23 21
24 25 25 29 33 36 31 32 55 49 40 46 40 42 38 36 36 35 31 29 26 24 23 18 14 10 7 6 9 12 13 15 17 20 24 26 27 26 26 23 21 18 19 21
27 26 28 29 33 37 35 35 50 53 50 37 32 43 40 36 36 33 32 29 27 25 22 19 14 10 8 8 11 12 13 13 17 21 24 24 25 23 21 19 18 20 20 22
29 28 28 31 33 35 37 37 41 53 52 47 34 40 43 39 37 33 30 29 27 25 25 22 16 12 11 10 10 11 12 15 18 21 22 24 25 21 20 20 18 22 24 23
33 31 29 32 33 36 38 38 35 41 54 50 45 43 43 42 38 33 31 29 27 25 24 22 18 14 11 10 9 9 12 15 19 22 25 26 22 17 21 21 23 29 30 29
37 35 33 32 36 37 40 40 40 36 48 57 50 45 39 40 37 34 31 30 27 25 23 19 16 13 11 7 7 7 11 15 20 25 29 20 18 25 23 22 25 26 29 33
41 39 37 35 38 39 40 41 44 38 40 56 50 43 41 39 38 33 30 29 28 26 24 18 12 10 9 6 5 6 12 17 23 29 20 21 26 27 23 25 26 29 31 33
43 43 41 39 40 42 43 43 46 42 41 51 47 39 40 38 34 31 32 31 29 27 24 18 12 10 9 8 4 6 12 19 26 21 20 24 30 30 30 29 26 26 27 27
44 46 46 44 42 45 46 46 48 42 40 47 44 36 39 37 36 36 34 33 31 27 23 17 12 14 13 9 3 6 13 21 22 16 22 34 34 33 30 29 27 27 26 28
46 49 50 48 47 49 50 49 48 43 40 42 46 38 39 40 39 38 36 34 31 26 23 14 15 18 14 8 4 6 13 20 15 18 28 31 32 32 29 25 23 24 24 25
48 53 54 52 51 53 53 51 51 49 44 41 47 38 38 40 37 38 37 35 30 26 18 15 19 19 16 9 6 6 12 15 12 20 29 31 31 27 24 21 20 21 21 23
50 55 56 55 54 55 56 55 52 51 48 44 42 40 36 38 38 38 38 34 30 21 16 19 23 22 16 12 7 7 9 10 13 22 26 27 28 25 21 19 18 18 20 24
49 56 60 57 56 58 58 56 53 52 49 47 39 42 43 44 44 41 39 35 25 20 21 27 27 24 18 15 10 9 7 10 16 22 25 27 26 24 21 19 17 17 21 25
52 57 59 59 59 59 59 55 54 52 51 49 46 52 52 49 47 42 38 32 25 22 26 29 28 25 21 17 13 12 11 15 21 23 23 25 25 23 21 18 15 17 21 22
Wind_Direction
246 240 236 233 230 227 221 217 211 210 210 214 213 215 213 224 222 227 232 234 236 238 243 251 269 279 277 288 304 309 309 306 304 297 298 303 301 299 295 293 285 273 295 276
249 244 236 229 224 217 213 211 209 207 208 211 208 206 212 220 217 221 226 229 232 232 242 256 269 276 281 298 306 309 310 308 310 314 313 309 305 327 333 326 312 258 278 325
247 243 234 221 212 210 210 209 209 206 205 207 205 201 209 214 210 216 221 224 228 225 236 254 264 271 288 299 308 314 313 319 323 324 323 355 28 27 2 358 4 312 284 292
241 235 230 215 207 207 207 208 208 205 202 204 203 199 207 207 207 212 220 219 222 227 228 245 256 264 284 299 309 317 319 331 348 358 24 49 47 30 21 22 17 16 343 292
233 224 217 211 205 206 205 206 206 205 202 204 200 199 204 203 207 211 217 217 220 218 224 237 245 258 273 284 307 312 320 346 358 14 32 46 37 32 18 11 22 21 13 351
224 214 211 205 201 201 203 205 205 203 201 201 200 200 200 200 206 209 212 215 212 216 225 224 230 239 252 275 291 306 339 354 359 7 33 27 19 22 15 2 359 358 357 345
216 208 205 202 199 197 202 202 202 203 200 199 200 199 197 198 204 206 208 207 213 217 216 212 218 222 236 253 279 313 338 350 345 21 30 14 6 3 359 351 347 346 340 328
210 202 201 197 196 199 202 199 199 201 199 197 200 197 198 195 203 206 207 203 211 212 208 210 213 211 222 236 278 324 320 322 323 7 10 351 348 344 338 338 333 330 326 321
206 198 198 198 201 196 202 205 201 200 199 196 199 198 197 196 198 206 203 208 207 206 204 204 206 210 222 237 266 301 296 309 314 346 343 332 329 326 328 326 326 321 318 312
204 198 197 199 205 202 199 207 202 193 199 194 198 199 195 193 198 202 203 206 205 201 202 199 204 211 221 241 264 287 297 303 316 339 332 325 321 324 324 324 321 317 310 308
205 200 198 198 205 199 201 205 197 184 195 194 197 200 193 195 196 202 206 204 203 197 201 199 206 213 229 251 270 282 296 305 321 329 322 321 318 319 321 318 309 306 309 309
205 202 199 199 206 199 204 196 191 183 191 196 198 198 195 195 196 201 207 206 199 197 199 200 211 219 233 257 270 281 297 302 317 318 316 315 317 316 311 308 309 311 312 314
204 203 200 198 203 204 204 198 186 185 190 176 203 197 195 190 192 199 204 206 197 198 196 202 213 219 231 250 269 289 292 296 307 312 312 309 311 310 314 316 316 317 318 326
205 205 201 199 201 206 205 195 188 188 187 170 193 198 197 191 195 200 204 202 198 197 194 202 213 223 230 257 291 301 296 303 315 315 312 307 313 317 322 326 326 335 346 347
203 206 204 201 201 203 206 195 190 188 180 187 177 195 190 190 195 202 203 201 198 197 196 197 212 210 229 270 295 301 311 323 323 313 310 316 323 330 334 338 357 2 360 357
205 206 205 201 201 201 203 206 192 190 186 172 187 198 194 191 194 197 200 199 197 199 197 205 213 213 241 268 289 314 321 322 316 319 320 332 340 340 348 16 20 14 20 9
207 207 207 204 202 200 200 203 195 193 192 184 178 197 194 194 198 198 198 198 197 202 203 212 219 228 246 271 300 319 315 323 328 326 338 347 344 359 27 42 37 32 35 36
212 209 208 205 203 200 199 202 205 193 196 193 184 192 192 195 200 199 198 197 199 203 209 218 222 228 249 277 301 311 316 330 336 338 348 347 355 46 61 57 50 45 40 42
214 212 209 206 203 201 200 198 204 200 198 195 194 194 193 195 200 200 197 197 199 204 212 216 219 229 249 263 281 304 329 343 338 350 352 5 62 77 82 72 59 52 53 55
215 213 209 207 203 201 200 198 200 206 195 197 192 194 192 194 198 200 198 198 202 206 213 216 220 223 219 233 254 325 346 344 352 358 22 65 88 96 86 76 70 72 67 64
215 213 210 207 203 201 199 198 200 206 197 192 188 193 190 193 195 198 199 199 203 208 211 212 214 205 200 209 240 354 350 353 3 22 54 93 105 101 96 90 83 73 68 65
212 209 206 205 203 201 199 198 199 203 199 190 186 193 191 191 194 199 197 199 203 207 209 208 195 192 192 200 83 8 353 5 14 47 95 115 109 103 98 95 88 81 76 76
213 208 204 201 202 199 197 196 199 201 194 190 187 191 191 192 195 199 200 201 203 203 206 190 190 183 188 167 99 18 5 14 29 71 111 113 105 106 104 99 90 83 78 74
209 205 200 199 199 197 195 195 196 199 197 191 191 192 195 195 197 199 198 201 203 205 191 169 195 185 186 142 108 31 23 22 66 88 111 113 112 110 106 101 94 82 78 81
203 201 197 196 197 195 195 195 196 196 195 191 187 194 194 198 199 199 200 199 200 185 162 187 194 187 172 145 121 67 38 50 88 100 110 119 120 118 113 104 95 84 87 94
200 196 193 194 195 195 196 195 196 195 194 190 184 191 196 197 198 197 196 193 185 177 185 196 185 180 158 144 130 100 77 90 108 111 117 130 130 127 120 112 99 95 104 103
198 193 191 192 194 195 195 195 195 193 193 193 188 191 194 197 198 195 188 183 188 189 194 192 182 175 159 150 140 124 119 120 124 123 130 130 132 130 129 124 117 114 114 108
Height
5617 5621 5627 5634 5642 5651 5659 5667 5675 5685 5693 5701 5708 5717 5723 5727 5731 5734 5738 5741 5743 5745 5747 5747 5746 5745 5744 5742 5740 5737 5735 5731 5729 5725 5719 5713 5709 5704 5700 5694 5693 5693 5691 5688
5608 5612 5617 5624 5633 5641 5649 5658 5667 5676 5684 5693 5702 5710 5715 5720 5726 5729 5733 5736 5739 5741 5743 5743 5742 5741 5740 5738 5736 5733 5731 5728 5721 5716 5714 5709 5703 5698 5694 5690 5687 5687 5688 5686
5601 5604 5609 5616 5624 5633 5642 5651 5659 5666 5676 5686 5695 5702 5708 5715 5720 5724 5728 5732 5734 5736 5738 5739 5738 5737 5736 5734 5732 5730 5727 5721 5718 5715 5711 5704 5698 5696 5693 5689 5684 5682 5683 5684
5595 5598 5602 5609 5617 5626 5635 5643 5650 5658 5669 5680 5688 5695 5701 5710 5715 5720 5724 5728 5730 5732 5734 5735 5734 5734 5733 5731 5729 5727 5724 5721 5717 5714 5710 5702 5700 5698 5694 5691 5687 5684 5683 5682
5589 5592 5597 5603 5611 5620 5629 5637 5644 5654 5665 5674 5683 5689 5697 5705 5711 5716 5720 5724 5725 5728 5730 5731 5732 5732 5731 5730 5727 5725 5723 5720 5717 5714 5708 5703 5701 5698 5695 5691 5688 5686 5684 5683
5584 5587 5593 5599 5606 5615 5623 5630 5639 5649 5659 5668 5677 5685 5692 5699 5705 5712 5716 5719 5721 5723 5726 5728 5729 5729 5729 5727 5726 5724 5721 5718 5716 5714 5706 5704 5703 5698 5695 5693 5691 5688 5685 5682
5579 5583 5589 5595 5602 5610 5619 5627 5635 5644 5653 5663 5671 5680 5688 5695 5701 5708 5711 5715 5717 5720 5722 5724 5726 5726 5726 5726 5724 5722 5719 5718 5717 5712 5707 5706 5703 5699 5696 5694 5691 5689 5685 5682
5576 5580 5585 5592 5599 5607 5614 5622 5630 5638 5648 5658 5668 5676 5683 5690 5697 5702 5707 5710 5713 5716 5719 5721 5723 5724 5724 5724 5723 5720 5719 5718 5717 5711 5707 5707 5703 5699 5697 5693 5690 5686 5683 5678
5572 5577 5582 5589 5596 5603 5611 5618 5626 5634 5644 5654 5663 5670 5677 5685 5693 5699 5703 5706 5710 5714 5716 5718 5720 5722 5723 5723 5722 5720 5719 5718 5717 5710 5707 5705 5702 5698 5694 5690 5687 5682 5677 5672
5569 5574 5579 5586 5592 5599 5607 5614 5621 5630 5639 5649 5657 5664 5673 5682 5689 5695 5698 5703 5706 5709 5713 5716 5718 5720 5720 5721 5720 5719 5718 5717 5714 5708 5705 5703 5698 5694 5690 5686 5684 5675 5670 5665
5567 5571 5576 5582 5589 5596 5603 5610 5617 5626 5636 5644 5652 5661 5671 5679 5686 5691 5695 5701 5703 5707 5711 5714 5716 5717 5718 5719 5718 5717 5717 5715 5711 5705 5703 5700 5695 5691 5687 5681 5674 5669 5664 5659
5564 5568 5573 5579 5586 5592 5599 5607 5615 5624 5633 5642 5650 5659 5667 5675 5683 5689 5694 5698 5700 5704 5708 5712 5714 5715 5716 5716 5716 5715 5715 5713 5708 5704 5700 5695 5692 5686 5680 5674 5668 5663 5658 5652
5561 5566 5571 5577 5583 5589 5595 5604 5612 5620 5630 5642 5648 5656 5664 5672 5678 5684 5690 5694 5698 5702 5706 5710 5712 5713 5714 5714 5714 5714 5712 5709 5704 5700 5697 5692 5688 5681 5675 5670 5664 5658 5652 5646
5559 5563 5569 5574 5580 5586 5592 5599 5609 5617 5627 5637 5646 5654 5661 5669 5675 5680 5686 5690 5695 5699 5703 5707 5710 5711 5712 5712 5713 5713 5709 5704 5699 5696 5692 5687 5682 5676 5671 5665 5658 5653 5647 5642
5556 5561 5566 5571 5576 5583 5589 5596 5606 5614 5626 5633 5640 5649 5658 5664 5670 5676 5682 5687 5693 5698 5702 5705 5708 5709 5710 5710 5712 5710 5705 5700 5697 5693 5688 5683 5678 5673 5667 5660 5655 5651 5646 5642
5552 5557 5563 5569 5574 5580 5587 5594 5602 5611 5619 5631 5640 5647 5655 5661 5666 5672 5679 5686 5692 5697 5701 5703 5706 5707 5709 5711 5710 5706 5701 5698 5694 5690 5685 5680 5676 5670 5664 5659 5655 5651 5647 5642
5547 5553 5559 5565 5570 5577 5584 5592 5598 5607 5616 5627 5634 5642 5651 5657 5664 5671 5677 5684 5690 5694 5697 5700 5704 5706 5708 5708 5706 5704 5700 5696 5693 5688 5683 5678 5672 5667 5663 5660 5658 5654 5649 5644
5542 5549 5555 5560 5567 5574 5582 5589 5596 5604 5613 5623 5630 5638 5648 5655 5661 5669 5675 5681 5687 5691 5695 5698 5702 5705 5706 5705 5704 5701 5698 5695 5691 5687 5681 5676 5671 5667 5665 5664 5662 5658 5654 5649
5536 5543 5550 5556 5563 5570 5577 5585 5593 5599 5609 5618 5628 5637 5645 5652 5660 5667 5672 5678 5684 5689 5693 5697 5701 5702 5704 5704 5702 5700 5697 5694 5690 5685 5679 5674 5671 5670 5671 5669 5667 5665 5662 5657
5530 5537 5545 5552 5558 5566 5573 5582 5589 5596 5603 5615 5626 5635 5643 5651 5657 5665 5672 5677 5682 5687 5692 5695 5698 5700 5701 5702 5701 5698 5697 5693 5688 5683 5678 5675 5675 5676 5676 5674 5674 5672 5669 5665
5521 5530 5539 5546 5553 5561 5569 5576 5585 5593 5601 5612 5625 5632 5640 5648 5656 5663 5668 5674 5680 5684 5690 5693 5696 5699 5700 5700 5699 5698 5696 5692 5689 5684 5681 5680 5681 5682 5682 5681 5681 5679 5676 5672
5513 5521 5530 5539 5547 5556 5565 5573 5582 5589 5600 5611 5623 5631 5637 5645 5652 5658 5665 5670 5676 5681 5686 5690 5694 5697 5698 5698 5698 5698 5696 5693 5690 5686 5686 5685 5686 5687 5687 5688 5686 5685 5682 5679
5503 5511 5521 5530 5539 5549 5559 5569 5579 5588 5599 5611 5621 5628 5634 5641 5647 5654 5661 5668 5673 5679 5683 5689 5693 5695 5697 5697 5698 5698 5697 5695 5692 5689 5689 5690 5691 5692 5692 5692 5691 5690 5688 5686
5494 5503 5514 5523 5533 5546 5557 5565 5575 5585 5595 5604 5615 5623 5631 5637 5644 5650 5657 5664 5671 5677 5683 5689 5691 5693 5695 5696 5698 5698 5698 5697 5694 5693 5692 5694 5695 5696 5696 5696 5695 5695 5694 5692
5485 5494 5507 5521 5531 5542 5552 5560 5570 5580 5590 5600 5610 5620 5628 5633 5640 5647 5655 5663 5668 5676 5684 5687 5688 5691 5694 5696 5698 5699 5700 5698 5697 5696 5695 5696 5697 5698 5699 5700 5700 5699 5699 5697
5478 5491 5505 5515 5525 5535 5545 5556 5566 5577 5588 5598 5608 5615 5622 5627 5634 5642 5650 5660 5669 5677 5679 5682 5686 5689 5692 5696 5699 5700 5701 5700 5700 5698 5698 5698 5698 5700 5702 5703 5704 5704 5703 5702
5474 5487 5499 5509 5519 5529 5540 5552 5563 5574 5584 5593 5601 5607 5614 5622 5629 5639 5649 5659 5667 5672 5676 5679 5685 5688 5692 5695 5698 5701 5702 5702 5702 5701 5699 5699 5700 5702 5704 5705 5707 5707 5706 5705